Private Wetterstation Sandau
Wetterdaten: Mittwoch, 31.10.2012
Datum Zeit Temp. A. Feuchte A. Luftdruck Regen Wind Richtung Richtung Taupunkt Windchill
31.10.2012 00:01 1,6 C 91 % 1004,5 hPa 0,0 l/m 1,8 km/h (1 Bft) S-SW 202 0,3 C 1,6 C
31.10.2012 00:06 1,6 C 91 % 1004,4 hPa 0,0 l/m 1,4 km/h (1 Bft) S-SW 202 0,3 C 1,6 C
31.10.2012 00:11 1,6 C 91 % 1004,4 hPa 0,0 l/m 3,2 km/h (1 Bft) S-SW 202 0,3 C 1,6 C
31.10.2012 00:16 1,5 C 91 % 1004,4 hPa 0,0 l/m 0,0 km/h (0 Bft) S-SW 202 0,2 C 1,5 C
31.10.2012 00:21 1,4 C 91 % 1004,5 hPa 0,0 l/m 0,0 km/h (0 Bft) S 180 0,1 C 1,4 C
31.10.2012 00:26 1,4 C 91 % 1004,3 hPa 0,0 l/m 1,8 km/h (1 Bft) S 180 0,1 C 1,4 C
31.10.2012 00:31 1,4 C 91 % 1004,4 hPa 0,0 l/m 0,0 km/h (0 Bft) S-SW 202 0,1 C 1,4 C
31.10.2012 00:36 1,4 C 91 % 1004,4 hPa 0,0 l/m 2,5 km/h (1 Bft) S 180 0,1 C 1,4 C
31.10.2012 00:41 1,3 C 91 % 1004,3 hPa 0,0 l/m 3,6 km/h (1 Bft) S 180 -0,0 C 1,3 C
31.10.2012 00:46 1,3 C 91 % 1004,4 hPa 0,0 l/m 2,5 km/h (1 Bft) S 180 -0,0 C 1,3 C
31.10.2012 00:51 1,3 C 91 % 1004,4 hPa 0,0 l/m 3,2 km/h (1 Bft) S 180 -0,0 C 1,3 C
31.10.2012 00:56 1,3 C 91 % 1004,5 hPa 0,0 l/m 3,2 km/h (1 Bft) S 180 -0,0 C 1,3 C
31.10.2012 01:01 1,3 C 91 % 1004,4 hPa 0,0 l/m 1,4 km/h (1 Bft) S 180 -0,0 C 1,3 C
31.10.2012 01:06 1,3 C 91 % 1004,2 hPa 0,0 l/m 5,4 km/h (1 Bft) S 180 -0,0 C -0,3 C
31.10.2012 01:11 1,3 C 91 % 1004,1 hPa 0,0 l/m 2,5 km/h (1 Bft) S 180 -0,0 C 1,3 C
31.10.2012 01:16 1,3 C 91 % 1004,3 hPa 0,0 l/m 2,5 km/h (1 Bft) S-SO 157 -0,0 C 1,3 C
31.10.2012 01:21 1,3 C 91 % 1004,3 hPa 0,0 l/m 3,6 km/h (1 Bft) S-SO 157 -0,0 C 1,3 C
31.10.2012 01:26 1,2 C 91 % 1004,4 hPa 0,0 l/m 4,0 km/h (1 Bft) S 180 -0,1 C 1,2 C
31.10.2012 01:31 1,2 C 91 % 1004,3 hPa 0,0 l/m 3,2 km/h (1 Bft) S 180 -0,1 C 1,2 C
31.10.2012 01:36 1,1 C 91 % 1004,2 hPa 0,0 l/m 3,2 km/h (1 Bft) S-SO 157 -0,2 C 1,1 C
31.10.2012 01:41 1,2 C 91 % 1004,4 hPa 0,0 l/m 3,2 km/h (1 Bft) S-SO 157 -0,1 C 1,2 C
31.10.2012 01:46 1,1 C 91 % 1004,4 hPa 0,0 l/m 2,2 km/h (1 Bft) S-SO 157 -0,2 C 1,1 C
31.10.2012 01:51 1,1 C 91 % 1004,3 hPa 0,0 l/m 0,0 km/h (0 Bft) S-SO 157 -0,2 C 1,1 C
31.10.2012 01:56 1,1 C 91 % 1004,2 hPa 0,0 l/m 2,2 km/h (1 Bft) S-SO 157 -0,2 C 1,1 C
31.10.2012 02:01 1,2 C 91 % 1004,2 hPa 0,0 l/m 4,7 km/h (1 Bft) S-SO 157 -0,1 C -0,1 C
31.10.2012 02:06 1,2 C 91 % 1004,3 hPa 0,0 l/m 4,0 km/h (1 Bft) S-SO 157 -0,1 C 1,2 C
31.10.2012 02:11 1,1 C 91 % 1004,2 hPa 0,0 l/m 4,3 km/h (1 Bft) S-SO 157 -0,2 C 1,1 C
31.10.2012 02:16 1,2 C 91 % 1004,3 hPa 0,0 l/m 4,3 km/h (1 Bft) S 180 -0,1 C 1,2 C
31.10.2012 02:21 1,1 C 91 % 1004,4 hPa 0,0 l/m 4,3 km/h (1 Bft) S-SO 157 -0,2 C 1,1 C
31.10.2012 02:26 1,2 C 91 % 1004,1 hPa 0,0 l/m 3,2 km/h (1 Bft) S 180 -0,1 C 1,2 C
31.10.2012 02:31 1,1 C 91 % 1004,1 hPa 0,0 l/m 0,0 km/h (0 Bft) S-SO 157 -0,2 C 1,1 C
31.10.2012 02:36 1,1 C 91 % 1004,2 hPa 0,0 l/m 2,9 km/h (1 Bft) S-SO 157 -0,2 C 1,1 C
31.10.2012 02:41 1,1 C 91 % 1004,3 hPa 0,0 l/m 2,5 km/h (1 Bft) S-SO 157 -0,2 C 1,1 C
31.10.2012 02:46 1,0 C 92 % 1004,4 hPa 0,0 l/m 0,0 km/h (0 Bft) S-SO 157 -0,2 C 1,0 C
31.10.2012 02:51 1,0 C 92 % 1004,3 hPa 0,0 l/m 1,8 km/h (1 Bft) S-SO 157 -0,2 C 1,0 C
31.10.2012 02:56 1,0 C 92 % 1004,1 hPa 0,0 l/m 0,0 km/h (0 Bft) S-SO 157 -0,2 C 1,0 C
31.10.2012 03:01 1,0 C 92 % 1004,1 hPa 0,0 l/m 0,0 km/h (0 Bft) S-SO 157 -0,2 C 1,0 C
31.10.2012 03:06 0,9 C 92 % 1004,1 hPa 0,0 l/m 0,0 km/h (0 Bft) S-SO 157 -0,2 C 0,9 C
31.10.2012 03:11 0,9 C 92 % 1004,1 hPa 0,0 l/m 0,0 km/h (0 Bft) S-SO 157 -0,2 C 0,9 C
31.10.2012 03:16 0,9 C 92 % 1004,2 hPa 0,0 l/m 2,5 km/h (1 Bft) S 180 -0,2 C 0,9 C
31.10.2012 03:21 0,9 C 92 % 1004,2 hPa 0,0 l/m 1,4 km/h (1 Bft) S-SO 157 -0,2 C 0,9 C
31.10.2012 03:26 0,9 C 92 % 1004,3 hPa 0,0 l/m 1,4 km/h (1 Bft) S-SO 157 -0,2 C 0,9 C
31.10.2012 03:31 0,9 C 92 % 1004,2 hPa 0,0 l/m 3,2 km/h (1 Bft) S-SO 157 -0,2 C 0,9 C
31.10.2012 03:36 0,9 C 92 % 1004,1 hPa 0,0 l/m 2,5 km/h (1 Bft) S-SO 157 -0,2 C 0,9 C
31.10.2012 03:41 0,9 C 92 % 1004,1 hPa 0,0 l/m 2,9 km/h (1 Bft) S-SO 157 -0,2 C 0,9 C
31.10.2012 03:46 0,9 C 92 % 1004,2 hPa 0,0 l/m 2,5 km/h (1 Bft) S-SO 157 -0,2 C 0,9 C
31.10.2012 03:51 0,9 C 92 % 1004,4 hPa 0,0 l/m 3,2 km/h (1 Bft) S-SO 157 -0,2 C 0,9 C
31.10.2012 03:56 0,9 C 92 % 1004,3 hPa 0,0 l/m 2,2 km/h (1 Bft) S-SO 157 -0,2 C 0,9 C
31.10.2012 04:01 0,9 C 92 % 1004,3 hPa 0,0 l/m 0,0 km/h (0 Bft) S-SO 157 -0,2 C 0,9 C
31.10.2012 04:06 0,9 C 92 % 1004,0 hPa 0,0 l/m 1,4 km/h (1 Bft) S 180 -0,2 C 0,9 C
31.10.2012 04:11 1,1 C 92 % 1004,1 hPa 0,0 l/m 2,2 km/h (1 Bft) S-SO 157 -0,1 C 1,1 C
31.10.2012 04:16 1,1 C 92 % 1004,2 hPa 0,0 l/m 3,2 km/h (1 Bft) S-SW 202 -0,1 C 1,1 C
31.10.2012 04:21 1,2 C 92 % 1004,1 hPa 0,0 l/m 0,0 km/h (0 Bft) S-SO 157 0,0 C 1,2 C
31.10.2012 04:26 1,3 C 92 % 1004,3 hPa 0,0 l/m 2,2 km/h (1 Bft) S 180 0,1 C 1,3 C
31.10.2012 04:31 1,3 C 92 % 1004,2 hPa 0,0 l/m 0,0 km/h (0 Bft) S 180 0,1 C 1,3 C
31.10.2012 04:36 1,4 C 92 % 1004,3 hPa 0,0 l/m 1,4 km/h (1 Bft) S 180 0,2 C 1,4 C
31.10.2012 04:41 1,5 C 92 % 1004,1 hPa 0,0 l/m 0,0 km/h (0 Bft) S 180 0,3 C 1,5 C
31.10.2012 04:46 1,6 C 92 % 1004,2 hPa 0,0 l/m 3,6 km/h (1 Bft) S-SO 157 0,4 C 1,6 C
31.10.2012 04:51 1,6 C 92 % 1004,1 hPa 0,0 l/m 3,6 km/h (1 Bft) SO 135 0,4 C 1,6 C
31.10.2012 04:56 1,7 C 92 % 1004,1 hPa 0,0 l/m 5,8 km/h (2 Bft) S-SO 157 0,5 C 0,0 C
31.10.2012 05:01 1,8 C 92 % 1004,1 hPa 0,0 l/m 0,0 km/h (0 Bft) S-SW 202 0,6 C 1,8 C
31.10.2012 05:06 1,8 C 92 % 1004,1 hPa 0,0 l/m 6,5 km/h (2 Bft) S-SO 157 0,6 C -0,1 C
31.10.2012 05:11 1,9 C 92 % 1004,1 hPa 0,0 l/m 1,8 km/h (1 Bft) S-SO 157 0,7 C 1,9 C
31.10.2012 05:16 1,9 C 92 % 1004,0 hPa 0,0 l/m 0,0 km/h (0 Bft) S-SO 157 0,7 C 1,9 C
31.10.2012 05:21 1,9 C 93 % 1004,0 hPa 0,0 l/m 2,2 km/h (1 Bft) S-SO 157 0,9 C 1,9 C
31.10.2012 05:26 1,9 C 93 % 1004,0 hPa 0,0 l/m 4,0 km/h (1 Bft) O-SO 112 0,9 C 1,9 C
31.10.2012 05:31 1,9 C 93 % 1004,1 hPa 0,0 l/m 4,7 km/h (1 Bft) S-SO 157 0,9 C 0,7 C
31.10.2012 05:36 1,9 C 93 % 1004,0 hPa 0,0 l/m 4,3 km/h (1 Bft) S-SO 157 0,9 C 1,9 C
31.10.2012 05:41 2,1 C 93 % 1004,0 hPa 0,0 l/m 5,4 km/h (1 Bft) S-SO 157 1,1 C 0,6 C
31.10.2012 05:46 2,1 C 93 % 1004,0 hPa 0,0 l/m 5,0 km/h (1 Bft) S 180 1,1 C 0,8 C
31.10.2012 05:51 2,1 C 93 % 1004,1 hPa 0,0 l/m 4,3 km/h (1 Bft) S-SO 157 1,1 C 2,1 C
31.10.2012 05:56 2,1 C 93 % 1004,2 hPa 0,0 l/m 4,7 km/h (1 Bft) SO 135 1,1 C 0,9 C
31.10.2012 06:01 2,1 C 93 % 1004,2 hPa 0,0 l/m 3,6 km/h (1 Bft) S 180 1,1 C 2,1 C
31.10.2012 06:06 2,1 C 93 % 1004,1 hPa 0,0 l/m 4,7 km/h (1 Bft) S 180 1,1 C 0,9 C
31.10.2012 06:11 2,0 C 93 % 1004,1 hPa 0,0 l/m 2,5 km/h (1 Bft) S-SO 157 1,0 C 2,0 C
31.10.2012 06:16 1,9 C 93 % 1004,1 hPa 0,0 l/m 0,0 km/h (0 Bft) S-SO 157 0,9 C 1,9 C
31.10.2012 06:21 1,9 C 93 % 1004,0 hPa 0,0 l/m 5,4 km/h (1 Bft) S 180 0,9 C 0,4 C
31.10.2012 06:26 1,9 C 93 % 1004,2 hPa 0,0 l/m 1,8 km/h (1 Bft) SO 135 0,9 C 1,9 C
31.10.2012 06:31 1,8 C 93 % 1004,2 hPa 0,0 l/m 1,1 km/h (1 Bft) S-SO 157 0,8 C 1,8 C
31.10.2012 06:36 1,8 C 93 % 1004,2 hPa 0,0 l/m 2,2 km/h (1 Bft) S-SO 157 0,8 C 1,8 C
31.10.2012 06:41 1,8 C 93 % 1004,3 hPa 0,0 l/m 5,0 km/h (1 Bft) S-SO 157 0,8 C 0,5 C
31.10.2012 06:46 1,8 C 93 % 1004,3 hPa 0,0 l/m 6,1 km/h (2 Bft) S 180 0,8 C 0,0 C
31.10.2012 06:51 1,6 C 93 % 1004,2 hPa 0,0 l/m 4,3 km/h (1 Bft) SO 135 0,6 C 1,6 C
31.10.2012 06:56 1,6 C 93 % 1004,3 hPa 0,0 l/m 2,5 km/h (1 Bft) S-SO 157 0,6 C 1,6 C
31.10.2012 07:01 1,6 C 93 % 1004,2 hPa 0,0 l/m 3,6 km/h (1 Bft) SW 225 0,6 C 1,6 C
31.10.2012 07:06 1,6 C 93 % 1004,3 hPa 0,0 l/m 5,0 km/h (1 Bft) S 180 0,6 C 0,2 C
31.10.2012 07:11 1,6 C 93 % 1004,5 hPa 0,0 l/m 2,9 km/h (1 Bft) S 180 0,6 C 1,6 C
31.10.2012 07:16 1,7 C 93 % 1004,6 hPa 0,0 l/m 0,0 km/h (0 Bft) S-SO 157 0,7 C 1,7 C
31.10.2012 07:21 1,6 C 93 % 1004,4 hPa 0,0 l/m 0,0 km/h (0 Bft) S-SO 157 0,6 C 1,6 C
31.10.2012 07:26 1,7 C 93 % 1004,5 hPa 0,0 l/m 0,0 km/h (0 Bft) S-SO 157 0,7 C 1,7 C
31.10.2012 07:31 1,7 C 93 % 1004,5 hPa 0,0 l/m 0,0 km/h (0 Bft) S-SO 157 0,7 C 1,7 C
31.10.2012 07:36 1,7 C 93 % 1004,7 hPa 0,0 l/m 2,9 km/h (1 Bft) S-SO 157 0,7 C 1,7 C
31.10.2012 07:41 1,7 C 93 % 1004,5 hPa 0,0 l/m 2,5 km/h (1 Bft) S-SO 157 0,7 C 1,7 C
31.10.2012 07:46 1,7 C 93 % 1004,6 hPa 0,0 l/m 1,8 km/h (1 Bft) S-SO 157 0,7 C 1,7 C
31.10.2012 07:51 1,8 C 93 % 1004,8 hPa 0,0 l/m 2,5 km/h (1 Bft) S-SO 157 0,8 C 1,8 C
31.10.2012 07:56 1,6 C 93 % 1004,7 hPa 0,0 l/m 0,0 km/h (0 Bft) S 180 0,6 C 1,6 C
31.10.2012 08:01 1,8 C 93 % 1004,9 hPa 0,0 l/m 2,2 km/h (1 Bft) S-SO 157 0,8 C 1,8 C
31.10.2012 08:06 1,8 C 93 % 1004,7 hPa 0,0 l/m 1,8 km/h (1 Bft) S-SO 157 0,8 C 1,8 C
31.10.2012 08:11 1,8 C 93 % 1004,9 hPa 0,0 l/m 3,2 km/h (1 Bft) SO 135 0,8 C 1,8 C
31.10.2012 08:16 1,8 C 93 % 1005,0 hPa 0,0 l/m 0,0 km/h (0 Bft) S-SO 157 0,8 C 1,8 C
31.10.2012 08:21 1,9 C 93 % 1004,9 hPa 0,0 l/m 0,0 km/h (0 Bft) S-SO 157 0,9 C 1,9 C
31.10.2012 08:26 1,9 C 93 % 1004,9 hPa 0,0 l/m 3,2 km/h (1 Bft) SO 135 0,9 C 1,9 C
31.10.2012 08:31 1,9 C 93 % 1005,1 hPa 0,0 l/m 2,5 km/h (1 Bft) SO 135 0,9 C 1,9 C
31.10.2012 08:36 1,9 C 93 % 1004,8 hPa 0,0 l/m 2,9 km/h (1 Bft) S-SO 157 0,9 C 1,9 C
31.10.2012 08:41 2,1 C 93 % 1004,9 hPa 0,0 l/m 0,0 km/h (0 Bft) SO 135 1,1 C 2,1 C
31.10.2012 08:46 2,1 C 93 % 1005,0 hPa 0,0 l/m 1,8 km/h (1 Bft) SO 135 1,1 C 2,1 C
31.10.2012 08:51 2,1 C 93 % 1004,9 hPa 0,0 l/m 4,3 km/h (1 Bft) S-SO 157 1,1 C 2,1 C
31.10.2012 08:56 2,1 C 93 % 1005,0 hPa 0,0 l/m 0,0 km/h (0 Bft) SO 135 1,1 C 2,1 C
31.10.2012 09:01 2,1 C 93 % 1005,1 hPa 0,0 l/m 6,1 km/h (2 Bft) SO 135 1,1 C 0,4 C
31.10.2012 09:06 2,1 C 93 % 1005,1 hPa 0,0 l/m 2,9 km/h (1 Bft) S-SO 157 1,1 C 2,1 C
31.10.2012 09:11 2,1 C 93 % 1005,1 hPa 0,5 l/m 5,0 km/h (1 Bft) SO 135 1,1 C 0,8 C
31.10.2012 09:16 1,9 C 93 % 1005,2 hPa 0,0 l/m 3,6 km/h (1 Bft) SO 135 0,9 C 1,9 C
31.10.2012 09:21 1,8 C 93 % 1005,3 hPa 0,0 l/m 4,7 km/h (1 Bft) SO 135 0,8 C 0,6 C
31.10.2012 09:26 1,8 C 93 % 1005,2 hPa 0,0 l/m 5,8 km/h (2 Bft) O-SO 112 0,8 C 0,1 C
31.10.2012 09:31 1,8 C 93 % 1005,2 hPa 0,0 l/m 2,2 km/h (1 Bft) SO 135 0,8 C 1,8 C
31.10.2012 09:36 1,9 C 93 % 1005,3 hPa 0,0 l/m 3,2 km/h (1 Bft) O-SO 112 0,9 C 1,9 C
31.10.2012 09:41 1,9 C 93 % 1005,3 hPa 0,0 l/m 1,8 km/h (1 Bft) O-SO 112 0,9 C 1,9 C
31.10.2012 09:46 1,9 C 93 % 1005,3 hPa 0,0 l/m 4,0 km/h (1 Bft) SO 135 0,9 C 1,9 C
31.10.2012 09:51 2,1 C 93 % 1005,1 hPa 0,0 l/m 4,0 km/h (1 Bft) O-SO 112 1,1 C 2,1 C
31.10.2012 09:56 2,3 C 93 % 1005,1 hPa 0,0 l/m 3,2 km/h (1 Bft) SO 135 1,3 C 2,3 C
31.10.2012 10:01 2,4 C 93 % 1005,2 hPa 0,0 l/m 0,0 km/h (0 Bft) O-SO 112 1,4 C 2,4 C
31.10.2012 10:06 2,6 C 93 % 1005,2 hPa 0,0 l/m 0,0 km/h (0 Bft) O-SO 112 1,6 C 2,6 C
31.10.2012 10:11 2,9 C 93 % 1005,2 hPa 0,0 l/m 2,2 km/h (1 Bft) O-SO 112 1,9 C 2,9 C
31.10.2012 10:16 3,2 C 93 % 1005,1 hPa 0,0 l/m 2,5 km/h (1 Bft) O-SO 112 2,2 C 3,2 C
31.10.2012 10:21 3,4 C 93 % 1005,1 hPa 0,0 l/m 4,3 km/h (1 Bft) SO 135 2,4 C 3,4 C
31.10.2012 10:26 3,6 C 93 % 1005,1 hPa 0,0 l/m 2,2 km/h (1 Bft) SO 135 2,6 C 3,6 C
31.10.2012 10:31 3,9 C 93 % 1005,2 hPa 0,0 l/m 0,0 km/h (0 Bft) SO 135 2,9 C 3,9 C
31.10.2012 10:36 4,2 C 94 % 1005,3 hPa 0,0 l/m 6,5 km/h (2 Bft) S-SW 202 3,3 C 2,6 C
31.10.2012 10:41 4,4 C 94 % 1005,2 hPa 0,0 l/m 6,5 km/h (2 Bft) SW 225 3,5 C 2,9 C
31.10.2012 10:46 4,7 C 93 % 1005,1 hPa 0,0 l/m 9,4 km/h (2 Bft) S-SO 157 3,7 C 2,4 C
31.10.2012 10:51 5,0 C 93 % 1004,9 hPa 0,0 l/m 14,0 km/h (3 Bft) S-SO 157 4,0 C 1,9 C
31.10.2012 10:56 5,3 C 93 % 1004,8 hPa 0,0 l/m 7,6 km/h (2 Bft) S-SO 157 4,3 C 3,6 C
31.10.2012 11:01 5,4 C 93 % 1004,7 hPa 0,0 l/m 6,8 km/h (2 Bft) SO 135 4,4 C 3,9 C
31.10.2012 11:06 5,6 C 93 % 1004,5 hPa 0,0 l/m 0,0 km/h (0 Bft) SO 135 4,6 C 5,6 C
31.10.2012 11:11 5,9 C 93 % 1004,4 hPa 0,0 l/m 2,5 km/h (1 Bft) O-SO 112 4,9 C 5,9 C
31.10.2012 11:16 5,9 C 93 % 1004,4 hPa 0,0 l/m 9,7 km/h (2 Bft) S 180 4,9 C 3,8 C
31.10.2012 11:21 6,1 C 93 % 1004,4 hPa 0,0 l/m 5,0 km/h (1 Bft) O-SO 112 5,1 C 5,3 C
31.10.2012 11:26 6,2 C 93 % 1004,4 hPa 0,0 l/m 3,6 km/h (1 Bft) S 180 5,2 C 6,2 C
31.10.2012 11:31 6,3 C 92 % 1004,5 hPa 0,0 l/m 9,4 km/h (2 Bft) SO 135 5,1 C 4,3 C
31.10.2012 11:36 6,4 C 92 % 1004,5 hPa 0,0 l/m 7,9 km/h (2 Bft) S-SO 157 5,2 C 4,8 C
31.10.2012 11:41 6,5 C 92 % 1004,4 hPa 0,0 l/m 11,2 km/h (2 Bft) SO 135 5,3 C 4,2 C
31.10.2012 11:46 6,8 C 91 % 1004,2 hPa 0,0 l/m 0,0 km/h (0 Bft) SO 135 5,4 C 6,8 C
31.10.2012 11:51 7,0 C 91 % 1004,1 hPa 0,0 l/m 5,8 km/h (2 Bft) S-SO 157 5,6 C 6,1 C
31.10.2012 11:56 7,2 C 90 % 1004,0 hPa 0,0 l/m 9,0 km/h (2 Bft) S-SO 157 5,7 C 5,5 C
31.10.2012 12:01 7,3 C 90 % 1004,0 hPa 0,0 l/m 4,0 km/h (1 Bft) S 180 5,8 C 7,3 C
31.10.2012 12:06 7,4 C 89 % 1003,9 hPa 0,0 l/m 6,1 km/h (2 Bft) SO 135 5,7 C 6,5 C
31.10.2012 12:11 7,6 C 89 % 1004,1 hPa 0,0 l/m 3,6 km/h (1 Bft) S 180 5,9 C 7,6 C
31.10.2012 12:16 7,8 C 88 % 1004,1 hPa 0,0 l/m 6,1 km/h (2 Bft) SW 225 5,9 C 6,9 C
31.10.2012 12:21 7,8 C 87 % 1004,0 hPa 0,0 l/m 6,8 km/h (2 Bft) S-SW 202 5,8 C 6,7 C
31.10.2012 12:26 7,9 C 87 % 1004,0 hPa 0,0 l/m 5,0 km/h (1 Bft) S 180 5,9 C 7,4 C
31.10.2012 12:31 8,1 C 87 % 1004,0 hPa 0,0 l/m 6,5 km/h (2 Bft) S 180 6,1 C 7,1 C
31.10.2012 12:36 8,1 C 86 % 1003,8 hPa 0,0 l/m 6,5 km/h (2 Bft) S 180 5,9 C 7,1 C
31.10.2012 12:41 8,3 C 86 % 1003,7 hPa 0,0 l/m 7,6 km/h (2 Bft) SW 225 6,1 C 7,1 C
31.10.2012 12:46 8,4 C 86 % 1003,5 hPa 0,0 l/m 7,6 km/h (2 Bft) SW 225 6,2 C 7,2 C
31.10.2012 12:51 8,5 C 85 % 1003,5 hPa 0,0 l/m 5,0 km/h (1 Bft) S-SO 157 6,1 C 8,1 C
31.10.2012 12:56 8,7 C 85 % 1003,5 hPa 0,0 l/m 4,3 km/h (1 Bft) S 180 6,3 C 8,7 C
31.10.2012 13:01 8,8 C 84 % 1003,6 hPa 0,0 l/m 5,8 km/h (2 Bft) S-SW 202 6,2 C 8,1 C
31.10.2012 13:06 8,8 C 84 % 1003,6 hPa 0,0 l/m 15,5 km/h (3 Bft) S-SO 157 6,2 C 6,4 C
31.10.2012 13:11 8,9 C 83 % 1003,5 hPa 0,0 l/m 5,0 km/h (1 Bft) S-SO 157 6,2 C 8,5 C
31.10.2012 13:16 9,0 C 83 % 1003,4 hPa 0,0 l/m 19,8 km/h (3 Bft) W-SW 247 6,3 C 6,1 C
31.10.2012 13:21 9,0 C 82 % 1003,5 hPa 0,0 l/m 10,8 km/h (2 Bft) W-SW 247 6,1 C 7,3 C
31.10.2012 13:26 9,0 C 82 % 1003,4 hPa 0,0 l/m 4,7 km/h (1 Bft) S 180 6,1 C 8,7 C
31.10.2012 13:31 9,1 C 82 % 1003,4 hPa 0,0 l/m 12,6 km/h (3 Bft) S-SO 157 6,2 C 7,1 C
31.10.2012 13:36 9,1 C 81 % 1003,4 hPa 0,0 l/m 5,8 km/h (2 Bft) SO 135 6,0 C 8,5 C
31.10.2012 13:41 9,2 C 81 % 1003,3 hPa 0,0 l/m 5,4 km/h (1 Bft) S 180 6,1 C 8,7 C
31.10.2012 13:46 9,3 C 81 % 1003,1 hPa 0,0 l/m 13,0 km/h (3 Bft) S-SO 157 6,2 C 7,3 C
31.10.2012 13:51 9,3 C 81 % 1003,1 hPa 0,0 l/m 3,2 km/h (1 Bft) S-SO 157 6,2 C 9,3 C
31.10.2012 13:56 9,3 C 81 % 1003,1 hPa 0,0 l/m 2,2 km/h (1 Bft) S-SO 157 6,2 C 9,3 C
31.10.2012 14:01 9,3 C 80 % 1003,1 hPa 0,0 l/m 10,1 km/h (2 Bft) S-SW 202 6,0 C 7,8 C
31.10.2012 14:06 9,3 C 80 % 1003,0 hPa 0,0 l/m 7,2 km/h (2 Bft) S-SW 202 6,0 C 8,4 C
31.10.2012 14:11 9,4 C 80 % 1002,9 hPa 0,0 l/m 15,5 km/h (3 Bft) S-SO 157 6,1 C 7,1 C
31.10.2012 14:16 9,3 C 79 % 1003,0 hPa 0,0 l/m 5,8 km/h (2 Bft) O 90 5,8 C 8,7 C
31.10.2012 14:21 9,4 C 79 % 1003,0 hPa 0,0 l/m 4,0 km/h (1 Bft) S 180 5,9 C 9,4 C
31.10.2012 14:26 9,4 C 79 % 1002,9 hPa 0,0 l/m 13,7 km/h (3 Bft) S 180 5,9 C 7,3 C
31.10.2012 14:31 9,4 C 79 % 1003,0 hPa 0,0 l/m 6,8 km/h (2 Bft) S-SO 157 5,9 C 8,6 C
31.10.2012 14:36 9,5 C 79 % 1003,1 hPa 0,0 l/m 5,8 km/h (2 Bft) S 180 6,0 C 9,0 C
31.10.2012 14:41 9,5 C 79 % 1003,1 hPa 0,0 l/m 18,4 km/h (3 Bft) S 180 6,0 C 6,9 C
31.10.2012 14:46 9,6 C 78 % 1003,1 hPa 0,0 l/m 7,9 km/h (2 Bft) S-SW 202 6,0 C 8,6 C
31.10.2012 14:51 9,6 C 78 % 1003,1 hPa 0,0 l/m 7,6 km/h (2 Bft) SO 135 6,0 C 8,6 C
31.10.2012 14:56 9,6 C 78 % 1003,0 hPa 0,0 l/m 6,5 km/h (2 Bft) SO 135 6,0 C 8,9 C
31.10.2012 15:01 9,6 C 78 % 1003,0 hPa 0,0 l/m 12,2 km/h (2 Bft) S 180 6,0 C 7,8 C
31.10.2012 15:06 9,6 C 78 % 1003,0 hPa 0,0 l/m 7,2 km/h (2 Bft) SW 225 6,0 C 8,7 C
31.10.2012 15:11 9,5 C 78 % 1003,0 hPa 0,0 l/m 11,2 km/h (2 Bft) S-SO 157 5,9 C 7,8 C
31.10.2012 15:16 9,4 C 78 % 1003,0 hPa 0,0 l/m 9,0 km/h (2 Bft) S 180 5,8 C 8,1 C
31.10.2012 15:21 9,3 C 78 % 1003,1 hPa 0,0 l/m 5,8 km/h (2 Bft) S-SW 202 5,7 C 8,7 C
31.10.2012 15:26 9,2 C 79 % 1003,0 hPa 0,0 l/m 4,7 km/h (1 Bft) S-SO 157 5,8 C 8,9 C
31.10.2012 15:31 9,1 C 79 % 1002,9 hPa 0,0 l/m 5,8 km/h (2 Bft) S 180 5,7 C 8,5 C
31.10.2012 15:36 8,9 C 79 % 1002,9 hPa 0,0 l/m 4,0 km/h (1 Bft) S-SO 157 5,5 C 8,9 C
31.10.2012 15:41 8,9 C 79 % 1003,0 hPa 0,0 l/m 2,9 km/h (1 Bft) S 180 5,5 C 8,9 C
31.10.2012 15:46 8,7 C 79 % 1002,8 hPa 0,0 l/m 6,5 km/h (2 Bft) S 180 5,3 C 7,8 C
31.10.2012 15:51 8,6 C 80 % 1002,7 hPa 0,0 l/m 5,8 km/h (2 Bft) S-SO 157 5,3 C 7,9 C
31.10.2012 15:56 8,4 C 80 % 1002,7 hPa 0,0 l/m 9,4 km/h (2 Bft) S 180 5,2 C 6,8 C
31.10.2012 16:01 8,4 C 80 % 1002,7 hPa 0,0 l/m 4,0 km/h (1 Bft) SO 135 5,2 C 8,4 C
31.10.2012 16:06 8,3 C 80 % 1002,6 hPa 0,0 l/m 4,3 km/h (1 Bft) S-SO 157 5,1 C 8,3 C
31.10.2012 16:11 8,3 C 81 % 1002,6 hPa 0,0 l/m 2,5 km/h (1 Bft) S-SO 157 5,2 C 8,3 C
31.10.2012 16:16 8,1 C 81 % 1002,6 hPa 0,0 l/m 6,1 km/h (2 Bft) S-SO 157 5,0 C 7,3 C
31.10.2012 16:21 8,1 C 81 % 1002,6 hPa 0,0 l/m 6,5 km/h (2 Bft) SO 135 5,0 C 7,1 C
31.10.2012 16:26 7,9 C 81 % 1002,6 hPa 0,0 l/m 6,5 km/h (2 Bft) SO 135 4,8 C 6,9 C
31.10.2012 16:31 7,8 C 82 % 1002,4 hPa 0,0 l/m 5,8 km/h (2 Bft) S 180 4,9 C 7,0 C
31.10.2012 16:36 7,6 C 82 % 1002,3 hPa 0,0 l/m 9,0 km/h (2 Bft) SO 135 4,7 C 6,0 C
31.10.2012 16:41 7,4 C 82 % 1002,3 hPa 0,0 l/m 3,6 km/h (1 Bft) S-SO 157 4,5 C 7,4 C
31.10.2012 16:46 7,3 C 83 % 1002,2 hPa 0,0 l/m 4,0 km/h (1 Bft) S-SO 157 4,6 C 7,3 C
31.10.2012 16:51 7,2 C 83 % 1002,5 hPa 0,0 l/m 4,7 km/h (1 Bft) SO 135 4,5 C 6,7 C
31.10.2012 16:56 7,1 C 84 % 1002,3 hPa 0,0 l/m 4,3 km/h (1 Bft) SO 135 4,6 C 7,1 C
31.10.2012 17:01 6,9 C 84 % 1002,2 hPa 0,0 l/m 2,9 km/h (1 Bft) S-SO 157 4,4 C 6,9 C
31.10.2012 17:06 6,9 C 84 % 1002,2 hPa 0,0 l/m 4,0 km/h (1 Bft) O-SO 112 4,4 C 6,9 C
31.10.2012 17:11 6,8 C 85 % 1002,2 hPa 0,0 l/m 3,6 km/h (1 Bft) SO 135 4,5 C 6,8 C
31.10.2012 17:16 6,7 C 85 % 1002,2 hPa 0,0 l/m 5,0 km/h (1 Bft) S-SO 157 4,4 C 6,0 C
31.10.2012 17:21 6,6 C 85 % 1002,2 hPa 0,0 l/m 3,2 km/h (1 Bft) SO 135 4,3 C 6,6 C
31.10.2012 17:26 6,6 C 86 % 1002,1 hPa 0,0 l/m 5,0 km/h (1 Bft) SO 135 4,4 C 5,9 C
31.10.2012 17:31 6,6 C 86 % 1002,1 hPa 0,0 l/m 7,2 km/h (2 Bft) SO 135 4,4 C 5,2 C
31.10.2012 17:36 6,5 C 86 % 1002,0 hPa 0,0 l/m 0,0 km/h (0 Bft) S-SO 157 4,3 C 6,5 C
31.10.2012 17:41 6,4 C 86 % 1002,1 hPa 0,0 l/m 2,9 km/h (1 Bft) S-SO 157 4,2 C 6,4 C
31.10.2012 17:46 6,4 C 86 % 1002,1 hPa 0,0 l/m 6,5 km/h (2 Bft) S 180 4,2 C 5,2 C
31.10.2012 17:51 6,4 C 86 % 1002,1 hPa 0,0 l/m 3,6 km/h (1 Bft) SO 135 4,2 C 6,4 C
31.10.2012 17:56 6,3 C 86 % 1002,0 hPa 0,0 l/m 1,8 km/h (1 Bft) O-SO 112 4,1 C 6,3 C
31.10.2012 18:01 6,2 C 87 % 1002,0 hPa 0,0 l/m 3,2 km/h (1 Bft) S-SO 157 4,2 C 6,2 C
31.10.2012 18:06 6,2 C 87 % 1001,8 hPa 0,0 l/m 0,0 km/h (0 Bft) SO 135 4,2 C 6,2 C
31.10.2012 18:11 6,1 C 87 % 1001,8 hPa 0,0 l/m 4,7 km/h (1 Bft) O-SO 112 4,1 C 5,4 C
31.10.2012 18:16 5,9 C 87 % 1001,8 hPa 0,0 l/m 4,7 km/h (1 Bft) O-SO 112 3,9 C 5,2 C
31.10.2012 18:21 5,8 C 87 % 1001,8 hPa 0,0 l/m 6,1 km/h (2 Bft) O-SO 112 3,8 C 4,6 C
31.10.2012 18:26 5,6 C 87 % 1001,7 hPa 0,0 l/m 4,7 km/h (1 Bft) O-SO 112 3,6 C 4,9 C
31.10.2012 18:31 5,6 C 87 % 1001,5 hPa 0,0 l/m 2,5 km/h (1 Bft) SO 135 3,6 C 5,6 C
31.10.2012 18:36 5,5 C 88 % 1001,5 hPa 0,0 l/m 7,2 km/h (2 Bft) O-SO 112 3,7 C 3,9 C
31.10.2012 18:41 5,4 C 88 % 1001,6 hPa 0,0 l/m 2,5 km/h (1 Bft) SO 135 3,6 C 5,4 C
31.10.2012 18:46 5,3 C 89 % 1001,5 hPa 0,0 l/m 9,4 km/h (2 Bft) S-SO 157 3,6 C 3,1 C
31.10.2012 18:51 5,4 C 89 % 1001,5 hPa 0,0 l/m 4,0 km/h (1 Bft) O 90 3,7 C 5,4 C
31.10.2012 18:56 5,3 C 89 % 1001,2 hPa 0,0 l/m 4,7 km/h (1 Bft) O-SO 112 3,6 C 4,5 C
31.10.2012 19:01 5,4 C 89 % 1001,2 hPa 0,0 l/m 4,7 km/h (1 Bft) O-SO 112 3,7 C 4,7 C
31.10.2012 19:06 5,4 C 89 % 1001,2 hPa 0,0 l/m 9,0 km/h (2 Bft) SO 135 3,7 C 3,4 C
31.10.2012 19:11 5,3 C 88 % 1001,2 hPa 0,0 l/m 6,5 km/h (2 Bft) SO 135 3,5 C 3,9 C
31.10.2012 19:16 5,2 C 89 % 1001,2 hPa 0,0 l/m 10,1 km/h (2 Bft) SO 135 3,5 C 2,9 C
31.10.2012 19:21 5,2 C 89 % 1001,1 hPa 0,0 l/m 8,6 km/h (2 Bft) O-SO 112 3,5 C 3,2 C
31.10.2012 19:26 5,2 C 89 % 1001,1 hPa 0,0 l/m 11,2 km/h (2 Bft) SO 135 3,5 C 2,7 C
31.10.2012 19:31 5,2 C 89 % 1001,1 hPa 0,0 l/m 6,1 km/h (2 Bft) SO 135 3,5 C 3,9 C
31.10.2012 19:36 5,2 C 89 % 1000,9 hPa 0,0 l/m 7,2 km/h (2 Bft) SO 135 3,5 C 3,6 C
31.10.2012 19:41 5,1 C 89 % 1000,8 hPa 0,0 l/m 9,7 km/h (2 Bft) SO 135 3,4 C 2,8 C
31.10.2012 19:46 5,0 C 89 % 1000,8 hPa 0,0 l/m 6,5 km/h (2 Bft) SO 135 3,3 C 3,6 C
31.10.2012 19:51 4,9 C 89 % 1000,9 hPa 0,0 l/m 6,1 km/h (2 Bft) O-SO 112 3,2 C 3,6 C
31.10.2012 19:56 4,9 C 90 % 1000,8 hPa 0,0 l/m 4,3 km/h (1 Bft) O 90 3,4 C 4,9 C
31.10.2012 20:01 4,9 C 90 % 1000,9 hPa 0,0 l/m 5,8 km/h (2 Bft) SO 135 3,4 C 3,7 C
31.10.2012 20:06 5,0 C 90 % 1001,0 hPa 0,0 l/m 4,0 km/h (1 Bft) O 90 3,5 C 5,0 C
31.10.2012 20:11 5,0 C 90 % 1001,0 hPa 0,0 l/m 4,3 km/h (1 Bft) O-SO 112 3,5 C 5,0 C
31.10.2012 20:16 5,0 C 90 % 1001,0 hPa 0,0 l/m 5,8 km/h (2 Bft) SO 135 3,5 C 3,8 C
31.10.2012 20:21 5,1 C 90 % 1001,0 hPa 0,0 l/m 6,1 km/h (2 Bft) O-SO 112 3,6 C 3,8 C
31.10.2012 20:26 5,1 C 90 % 1001,1 hPa 0,0 l/m 4,7 km/h (1 Bft) SO 135 3,6 C 4,3 C
31.10.2012 20:31 5,1 C 90 % 1001,1 hPa 0,0 l/m 8,6 km/h (2 Bft) SO 135 3,6 C 3,1 C
31.10.2012 20:36 5,0 C 89 % 1000,9 hPa 0,0 l/m 5,0 km/h (1 Bft) O-SO 112 3,3 C 4,1 C
31.10.2012 20:41 4,9 C 89 % 1000,9 hPa 0,0 l/m 11,5 km/h (2 Bft) O 90 3,2 C 2,2 C
31.10.2012 20:46 4,8 C 89 % 1001,0 hPa 0,0 l/m 3,2 km/h (1 Bft) O-SO 112 3,1 C 4,8 C
31.10.2012 20:51 4,7 C 89 % 1000,9 hPa 0,0 l/m 5,8 km/h (2 Bft) O-SO 112 3,0 C 3,4 C
31.10.2012 20:56 4,6 C 89 % 1000,9 hPa 0,0 l/m 3,2 km/h (1 Bft) O-SO 112 2,9 C 4,6 C
31.10.2012 21:01 4,4 C 89 % 1001,0 hPa 0,0 l/m 4,0 km/h (1 Bft) O-SO 112 2,7 C 4,4 C
31.10.2012 21:06 4,4 C 89 % 1001,1 hPa 0,0 l/m 4,0 km/h (1 Bft) S-SO 157 2,7 C 4,4 C
31.10.2012 21:11 4,4 C 89 % 1001,1 hPa 0,0 l/m 7,2 km/h (2 Bft) S-SO 157 2,7 C 2,7 C
31.10.2012 21:16 4,3 C 89 % 1001,0 hPa 0,0 l/m 7,9 km/h (2 Bft) S-SO 157 2,7 C 2,3 C
31.10.2012 21:21 4,3 C 90 % 1001,0 hPa 0,0 l/m 5,8 km/h (2 Bft) SO 135 2,8 C 3,0 C
31.10.2012 21:26 4,4 C 90 % 1000,9 hPa 0,0 l/m 3,6 km/h (1 Bft) SO 135 2,9 C 4,4 C
31.10.2012 21:31 4,3 C 90 % 1001,1 hPa 0,0 l/m 5,0 km/h (1 Bft) S-SO 157 2,8 C 3,3 C
31.10.2012 21:36 4,3 C 90 % 1001,0 hPa 0,0 l/m 6,5 km/h (2 Bft) S-SO 157 2,8 C 2,8 C
31.10.2012 21:41 4,3 C 90 % 1001,0 hPa 0,0 l/m 5,4 km/h (1 Bft) SO 135 2,8 C 3,1 C
31.10.2012 21:46 4,3 C 90 % 1000,8 hPa 0,0 l/m 5,0 km/h (1 Bft) SO 135 2,8 C 3,3 C
31.10.2012 21:51 4,2 C 90 % 1000,9 hPa 0,0 l/m 4,7 km/h (1 Bft) O-SO 112 2,7 C 3,3 C
31.10.2012 21:56 4,1 C 90 % 1000,7 hPa 0,0 l/m 4,3 km/h (1 Bft) O 90 2,6 C 4,1 C
31.10.2012 22:01 4,1 C 90 % 1000,6 hPa 0,0 l/m 1,8 km/h (1 Bft) SO 135 2,6 C 4,1 C
31.10.2012 22:06 3,9 C 90 % 1000,6 hPa 0,0 l/m 0,0 km/h (0 Bft) SO 135 2,4 C 3,9 C
31.10.2012 22:11 3,9 C 90 % 1000,5 hPa 0,0 l/m 3,6 km/h (1 Bft) SO 135 2,4 C 3,9 C
31.10.2012 22:16 3,9 C 90 % 1000,5 hPa 0,0 l/m 3,6 km/h (1 Bft) S-SO 157 2,4 C 3,9 C
31.10.2012 22:21 3,8 C 90 % 1000,5 hPa 0,0 l/m 3,6 km/h (1 Bft) S-SO 157 2,3 C 3,8 C
31.10.2012 22:26 3,8 C 90 % 1000,4 hPa 0,0 l/m 13,0 km/h (3 Bft) SO 135 2,3 C 0,6 C
31.10.2012 22:31 3,6 C 90 % 1000,0 hPa 0,0 l/m 6,1 km/h (2 Bft) O-SO 112 2,1 C 2,1 C
31.10.2012 22:36 3,6 C 90 % 1000,0 hPa 0,0 l/m 6,8 km/h (2 Bft) SO 135 2,1 C 1,8 C
31.10.2012 22:41 3,5 C 90 % 1000,0 hPa 0,0 l/m 3,2 km/h (1 Bft) O 90 2,0 C 3,5 C
31.10.2012 22:46 3,5 C 90 % 1000,0 hPa 0,0 l/m 7,2 km/h (2 Bft) O-SO 112 2,0 C 1,6 C
31.10.2012 22:51 3,5 C 90 % 999,7 hPa 0,0 l/m 5,4 km/h (1 Bft) O-SO 112 2,0 C 2,2 C
31.10.2012 22:56 3,5 C 91 % 999,7 hPa 0,0 l/m 9,4 km/h (2 Bft) SO 135 2,2 C 1,0 C
31.10.2012 23:01 3,5 C 91 % 999,6 hPa 0,0 l/m 7,6 km/h (2 Bft) SO 135 2,2 C 1,5 C
31.10.2012 23:06 3,5 C 91 % 999,5 hPa 0,0 l/m 5,0 km/h (1 Bft) O 90 2,2 C 2,4 C
31.10.2012 23:11 3,5 C 91 % 999,5 hPa 0,0 l/m 5,4 km/h (1 Bft) O 90 2,2 C 2,2 C
31.10.2012 23:16 3,5 C 91 % 999,3 hPa 0,0 l/m 0,0 km/h (0 Bft) O-SO 112 2,2 C 3,5 C
31.10.2012 23:21 3,5 C 91 % 999,4 hPa 0,0 l/m 6,8 km/h (2 Bft) O-SO 112 2,2 C 1,7 C
31.10.2012 23:26 3,4 C 91 % 999,5 hPa 0,0 l/m 3,6 km/h (1 Bft) SO 135 2,1 C 3,4 C
31.10.2012 23:31 3,4 C 91 % 999,1 hPa 0,0 l/m 5,4 km/h (1 Bft) O-SO 112 2,1 C 2,1 C
31.10.2012 23:36 3,4 C 91 % 999,0 hPa 0,0 l/m 7,6 km/h (2 Bft) O-SO 112 2,1 C 1,4 C
31.10.2012 23:41 3,4 C 91 % 999,2 hPa 0,0 l/m 6,8 km/h (2 Bft) O-SO 112 2,1 C 1,6 C
31.10.2012 23:46 3,4 C 91 % 999,1 hPa 0,0 l/m 5,8 km/h (2 Bft) O-SO 112 2,1 C 2,0 C
31.10.2012 23:51 3,3 C 91 % 999,0 hPa 0,0 l/m 5,4 km/h (1 Bft) O-SO 112 2,0 C 2,0 C
31.10.2012 23:56 3,3 C 91 % 999,1 hPa 0,0 l/m 2,9 km/h (1 Bft) O-SO 112 2,0 C 3,3 C
_ Min-Zeit 03:06 14:46 23:36 - 00:16 - - 03:06 01:06
Minimum _ 0,9 C 78 % 999,0 hPa - 0,0 km/h (0 Bft) - - -0,2 C -0,3 C
_ Max-Zeit 14:46 10:36 09:21 09:11 13:16 - - 12:56 14:21
Maximum _ 9,6 C 94 % 1005,3 hPa 0,5 l/m 19,8 km/h
W-SW (3 Bft)
- - 6,3 C 9,4 C
Durchschnitt _ 4,3 C 89 % 1003,1 hPa #0,5 l/m 4,5 km/h (1 Bft) S-SO - 2,6 C 3,7 C
(c) by David Heller